Location: Joplin
(37.0842°N, 94.5131°W)
Time: 23:03:50
(UTC-05:00)

ITAMSAT 1 - Visible Passes

Search period start: 26 May 2019 00:00
Search period end: 05 June 2019 00:00
Orbit: 783 x 797 km, 98.9° (Epoch: 25 May)

Date Brightness Start Highest point End Pass type
(mag) Time Alt. Az. Time Alt. Az. Time Alt. Az.
27 May 10.3 05:09:21 10° NE 05:12:33 16° E 05:15:45 10° SE visible
30 May 10.2 05:19:58 10° NE 05:23:50 21° E 05:27:42 10° SE visible
03 Jun 10.4 05:02:56 10° ENE 05:05:26 13° E 05:07:56 10° ESE visible
